When you browse on this site, cookies collect data to enhance your experience and personalize the content and advertising you see.
Visit our Privacy Policy to learn more. By continuing to use the site, you agree to this use of cookies and data.
  • In Schweiz
  • Länderverzeichnis
  • Für 7 Tage
  • Wassertemperatur
  • Satellitenkarten
  • Wetterkarte
  • Widgets
  • user-avatar
    Anmelden

    Stündliche Wetter Rio de Janeiro

    Heute, 24 Januar, Donnerstag

    Zeit Temperatur Niederschläge Wind Luftdruck Luftfeuchtigkeit
    00:00 +30°C° 0 mm 1 m/S 759 mmHg 64%
    01:00 +30°C° 0 mm 1 m/S 758 mmHg 65%
    02:00 +29°C° 0 mm 1 m/S 758 mmHg 67%
    03:00 +29°C° 0 mm 1 m/S 758 mmHg 68%
    04:00 +29°C° 0 mm 1 m/S 758 mmHg 68%
    05:00 +29°C° 0 mm 1 m/S 758 mmHg 68%
    06:00 +29°C° 0 mm 1 m/S 758 mmHg 68%
    07:00 +31°C° 0 mm 1 m/S 758 mmHg 60%
    08:00 +33°C° 0 mm 1 m/S 758 mmHg 52%
    09:00 +33°C° 0 mm 0 m/S 759 mmHg 44%
    10:00 +37°C° 0 mm 1 m/S 758 mmHg 40%
    11:00 +40°C° 0 mm 2 m/S 758 mmHg 35%
    12:00 +43°C° 0 mm 3 m/S 758 mmHg 31%
    13:00 +42°C° 0 mm 3 m/S 758 mmHg 34%
    14:00 +40°C° 0 mm 4 m/S 757 mmHg 38%
    15:00 +39°C° 0 mm 5 m/S 757 mmHg 41%
    16:00 +37°C° 0 mm 4 m/S 757 mmHg 45%
    17:00 +36°C° 0 mm 3 m/S 757 mmHg 49%
    18:00 +35°C° 0 mm 3 m/S 757 mmHg 53%
    19:00 +34°C° 0 mm 2 m/S 757 mmHg 57%
    20:00 +32°C° 0 mm 2 m/S 758 mmHg 60%
    21:00 +31°C° 0 mm 1 m/S 759 mmHg 64%
    22:00 +31°C° 0 mm 1 m/S 759 mmHg 66%
    23:00 +30°C° 0 mm 1 m/S 759 mmHg 67%

    Morgen, 25 Januar, Freitag

    Zeit Temperatur Niederschläge Wind Luftdruck Luftfeuchtigkeit
    00:00 +30°C° 0 mm 1 m/S 759 mmHg 68%
    01:00 +30°C° 0 mm 1 m/S 759 mmHg 69%
    02:00 +29°C° 0 mm 1 m/S 758 mmHg 70%
    03:00 +29°C° 0 mm 1 m/S 758 mmHg 70%
    04:00 +29°C° 0 mm 1 m/S 758 mmHg 70%
    05:00 +29°C° 0 mm 1 m/S 758 mmHg 70%
    06:00 +29°C° 0 mm 1 m/S 758 mmHg 70%
    07:00 +29°C° 0 mm 0 m/S 758 mmHg 61%
    08:00 +31°C° 0 mm 0 m/S 758 mmHg 53%
    09:00 +33°C° 0 mm 0 m/S 759 mmHg 45%
    10:00 +37°C° 0 mm 1 m/S 759 mmHg 41%
    11:00 +39°C° 0 mm 2 m/S 758 mmHg 38%
    12:00 +40°C° 0 mm 3 m/S 758 mmHg 34%
    13:00 +39°C° 0 mm 3 m/S 758 mmHg 38%
    14:00 +38°C° 0 mm 4 m/S 758 mmHg 41%
    15:00 +37°C° 0 mm 4 m/S 757 mmHg 45%
    16:00 +36°C° 2.3 mm 3 m/S 757 mmHg 50%
    17:00 +34°C° 2.3 mm 3 m/S 757 mmHg 54%
    18:00 +32°C° 2.3 mm 2 m/S 758 mmHg 59%
    19:00 +31°C° 2.3 mm 2 m/S 758 mmHg 61%
    20:00 +31°C° 2.3 mm 2 m/S 759 mmHg 63%
    21:00 +30°C° 2.3 mm 2 m/S 759 mmHg 65%
    22:00 +29°C° 0.5 mm 2 m/S 760 mmHg 65%
    23:00 +29°C° 0.5 mm 2 m/S 760 mmHg 65%

    übermorgen, 26 Januar, Samstag

    Zeit Temperatur Niederschläge Wind Luftdruck Luftfeuchtigkeit
    00:00 +28°C° 0.5 mm 1 m/S 760 mmHg 65%
    01:00 +28°C° 0 mm 2 m/S 759 mmHg 64%
    02:00 +28°C° 0 mm 2 m/S 759 mmHg 62%
    03:00 +27°C° 0 mm 2 m/S 758 mmHg 61%
    04:00 +27°C° 0 mm 2 m/S 758 mmHg 60%
    05:00 +27°C° 0 mm 2 m/S 759 mmHg 60%
    06:00 +27°C° 0 mm 2 m/S 759 mmHg 60%
    07:00 +28°C° 0 mm 2 m/S 759 mmHg 55%
    08:00 +30°C° 0 mm 1 m/S 759 mmHg 51%
    09:00 +31°C° 0 mm 1 m/S 760 mmHg 46%
    10:00 +33°C° 0 mm 1 m/S 760 mmHg 42%
    11:00 +34°C° 0 mm 1 m/S 760 mmHg 38%
    12:00 +36°C° 0 mm 2 m/S 760 mmHg 34%
    13:00 +37°C° 0 mm 2 m/S 759 mmHg 32%
    14:00 +37°C° 0 mm 3 m/S 759 mmHg 30%
    15:00 +38°C° 0 mm 3 m/S 758 mmHg 28%
    16:00 +37°C° 0 mm 4 m/S 758 mmHg 33%
    17:00 +36°C° 0 mm 4 m/S 758 mmHg 38%
    18:00 +35°C° 0 mm 5 m/S 758 mmHg 42%
    19:00 +34°C° 0 mm 4 m/S 759 mmHg 48%
    20:00 +33°C° 0 mm 4 m/S 760 mmHg 53%
    21:00 +30°C° 0 mm 4 m/S 760 mmHg 58%
    22:00 +30°C° 0 mm 3 m/S 760 mmHg 59%
    23:00 +30°C° 0 mm 3 m/S 760 mmHg 60%

    27 Januar, Sonntag

    Zeit Temperatur Niederschläge Wind Luftdruck Luftfeuchtigkeit
    00:00 +29°C° 0 mm 2 m/S 760 mmHg 62%
    01:00 +29°C° 0 mm 2 m/S 760 mmHg 63%
    02:00 +28°C° 0 mm 2 m/S 759 mmHg 65%
    03:00 +28°C° 0 mm 2 m/S 759 mmHg 67%
    04:00 +27°C° 0 mm 2 m/S 759 mmHg 67%
    05:00 +27°C° 0 mm 2 m/S 760 mmHg 67%
    06:00 +27°C° 0 mm 1 m/S 760 mmHg 68%
    07:00 +29°C° 0 mm 1 m/S 760 mmHg 59%
    08:00 +32°C° 0 mm 1 m/S 761 mmHg 50%
    09:00 +34°C° 0 mm 1 m/S 761 mmHg 42%
    10:00 +36°C° 0 mm 1 m/S 761 mmHg 37%
    11:00 +39°C° 0 mm 2 m/S 761 mmHg 33%
    12:00 +40°C° 0 mm 3 m/S 760 mmHg 28%
    13:00 +39°C° 0 mm 3 m/S 760 mmHg 32%
    14:00 +38°C° 0 mm 4 m/S 759 mmHg 35%
    15:00 +37°C° 0 mm 5 m/S 759 mmHg 39%
    16:00 +37°C° 0 mm 5 m/S 759 mmHg 42%
    17:00 +36°C° 0 mm 5 m/S 759 mmHg 46%
    18:00 +35°C° 0 mm 4 m/S 759 mmHg 50%
    19:00 +34°C° 0 mm 4 m/S 760 mmHg 52%
    20:00 +33°C° 0 mm 4 m/S 760 mmHg 55%
    21:00 +32°C° 0 mm 4 m/S 761 mmHg 58%
    22:00 +32°C° 0 mm 4 m/S 761 mmHg 59%
    23:00 +30°C° 0 mm 3 m/S 761 mmHg 61%

    28 Januar, Montag

    Zeit Temperatur Niederschläge Wind Luftdruck Luftfeuchtigkeit
    00:00 +29°C° 0 mm 3 m/S 761 mmHg 62%
    01:00 +29°C° 0 mm 2 m/S 761 mmHg 63%
    02:00 +29°C° 0 mm 2 m/S 760 mmHg 65%
    03:00 +28°C° 0 mm 2 m/S 760 mmHg 66%
    04:00 +28°C° 0 mm 2 m/S 760 mmHg 67%
    05:00 +28°C° 0 mm 1 m/S 761 mmHg 67%
    06:00 +28°C° 0 mm 1 m/S 761 mmHg 68%
    07:00 +30°C° 0 mm 1 m/S 761 mmHg 59%
    08:00 +32°C° 0 mm 1 m/S 762 mmHg 51%
    09:00 +32°C° 0 mm 0 m/S 762 mmHg 42%
    10:00 +36°C° 0 mm 1 m/S 761 mmHg 37%
    11:00 +39°C° 0 mm 2 m/S 761 mmHg 32%
    12:00 +42°C° 0 mm 3 m/S 761 mmHg 26%
    13:00 +41°C° 0 mm 4 m/S 760 mmHg 29%
    14:00 +41°C° 0 mm 4 m/S 760 mmHg 32%
    15:00 +40°C° 0 mm 5 m/S 759 mmHg 34%
    16:00 +39°C° 0 mm 5 m/S 759 mmHg 39%
    17:00 +37°C° 0 mm 5 m/S 759 mmHg 44%
    18:00 +36°C° 0 mm 5 m/S 759 mmHg 49%
    19:00 +35°C° 0 mm 4 m/S 760 mmHg 52%
    20:00 +34°C° 0 mm 4 m/S 760 mmHg 55%
    21:00 +33°C° 0 mm 4 m/S 760 mmHg 58%
    22:00 +31°C° 0 mm 3 m/S 761 mmHg 60%
    23:00 +31°C° 0 mm 3 m/S 761 mmHg 61%

    29 Januar, Dienstag

    Zeit Temperatur Niederschläge Wind Luftdruck Luftfeuchtigkeit
    00:00 +30°C° 0 mm 2 m/S 761 mmHg 63%
    01:00 +30°C° 0 mm 2 m/S 760 mmHg 64%
    02:00 +29°C° 0 mm 2 m/S 760 mmHg 65%
    03:00 +29°C° 0 mm 2 m/S 760 mmHg 67%
    04:00 +29°C° 0 mm 2 m/S 760 mmHg 67%
    05:00 +29°C° 0 mm 1 m/S 760 mmHg 67%
    06:00 +28°C° 0 mm 1 m/S 760 mmHg 67%
    07:00 +30°C° 0 mm 1 m/S 761 mmHg 59%
    08:00 +33°C° 0 mm 1 m/S 761 mmHg 51%
    09:00 +35°C° 0 mm 1 m/S 761 mmHg 43%
    10:00 +37°C° 0 mm 1 m/S 760 mmHg 38%
    11:00 +40°C° 0 mm 2 m/S 760 mmHg 32%
    12:00 +42°C° 0 mm 3 m/S 760 mmHg 27%
    13:00 +42°C° 0 mm 3 m/S 759 mmHg 29%
    14:00 +41°C° 0 mm 4 m/S 759 mmHg 31%
    15:00 +41°C° 0 mm 5 m/S 758 mmHg 33%
    16:00 +39°C° 0 mm 5 m/S 758 mmHg 39%
    17:00 +37°C° 0 mm 5 m/S 758 mmHg 44%
    18:00 +36°C° 0 mm 5 m/S 758 mmHg 50%
    19:00 +35°C° 0 mm 5 m/S 759 mmHg 53%
    20:00 +34°C° 0 mm 4 m/S 759 mmHg 56%
    21:00 +32°C° 0 mm 4 m/S 759 mmHg 60%
    22:00 +31°C° 0 mm 3 m/S 759 mmHg 61%
    23:00 +31°C° 0 mm 3 m/S 759 mmHg 61%
    Mehr zeigen